Simultaneous Nadir Overpasses (SNOs) Predictions

Prediction of SNOs between METOP-A and NOAA-19 Satellite Orbit:

Table of predicted SNOs for the next 14.0 days since TLE Epoch: 8/3/2018
Index Date (METOP-A) Time (METOP-A) Lat,Lon (METOP-A) SZA (METOP-A ) Date (NOAA-19) Time (NOAA-19) Lat,Lon (NOAA-19) SZA (NOAA-19 ) Distance(km) Time Diff (sec)
1 08/04/2018 07:59:00 78.74, 69.41 61.58 08/04/2018 07:57:54 78.73, 69.53 61.56 2.83 66
2 08/04/2018 08:49:41 -78.76,-123.16 118.40 08/04/2018 08:48:49 -78.73,-123.22 118.44 3.34 52
3 08/04/2018 09:40:22 78.72, 43.94 61.57 08/04/2018 09:39:55 78.73, 44.05 61.57 2.36 27
4 08/04/2018 10:31:03 -78.74,-148.63 118.41 08/04/2018 10:30:50 -78.73,-148.70 118.42 1.93 13
5 08/04/2018 11:21:44 78.70, 18.47 61.56 08/04/2018 11:21:56 78.72, 18.57 61.59 3.31 12
6 08/04/2018 12:12:25 -78.72,-174.10 118.41 08/04/2018 12:12:51 -78.73,-174.18 118.40 2.04 26
7 08/04/2018 13:03:05 78.72, -6.77 61.60 08/04/2018 13:03:57 78.72, -6.90 61.61 3.02 52
8 08/04/2018 13:53:47 -78.70, 160.43 118.42 08/04/2018 13:54:51 -78.69, 160.59 118.41 3.48 64
9 08/15/2018 04:07:53 78.88, 127.93 64.88 08/15/2018 04:06:41 78.88, 126.66 64.83 27.23 72
10 08/15/2018 04:58:37 -78.80, -65.27 115.21 08/15/2018 04:57:33 -78.77, -65.33 115.24 2.57 64
11 08/15/2018 05:49:17 78.78, 101.97 64.79 08/15/2018 05:48:39 78.77, 101.93 64.77 1.53 38
12 08/15/2018 06:39:59 -78.77, -90.74 115.21 08/15/2018 06:39:34 -78.77, -90.81 115.22 1.39 25
13 08/15/2018 07:30:39 78.76, 76.50 64.79 08/15/2018 07:30:40 78.77, 76.45 64.79 1.42 1
14 08/15/2018 08:21:21 -78.75,-116.22 115.21 08/15/2018 08:21:35 -78.77,-116.29 115.20 2.30 14
15 08/15/2018 09:12:01 78.74, 51.03 64.78 08/15/2018 09:12:41 78.76, 50.97 64.81 3.18 40
16 08/15/2018 10:02:43 -78.73,-141.69 115.22 08/15/2018 10:03:35 -78.73,-141.52 115.21 3.65 52
17 08/15/2018 10:53:28 78.52, 24.41 64.56 08/15/2018 10:54:36 78.55, 26.95 64.67 56.35 68




NCC Satellite Simultaneous Nadir Overpasses (SNOs) Prediction Service
